[[{"header":{"parameterUnit":"m.s-1","parameterCategory":1,"la1":30.2991,"la2":30.254,"lo1":-89.0895,"lo2":-89.0444,"dy":0.0017,"dx":0.0017,"nx":28,"ny":28,"refTime":"2024-05-21T03:00:00:Z","depth":0,"parameterNumber":2,"parameterNumberName":"U-component_of_WINDS"},"data":[0,0,0,0,0,0,0,0,0,0,0,0,0,0,0,0,0,0,0,0,0,0,0,0,0,0,0,0,0,0,0,0,0,0,0,0,0,0,0,0,0,0,0,0,0,0,0,0,0,0,0,0,0,0,0,0,0,0,-3.85,-3.85,0,-3.8544,-3.8544,-3.8545,-3.8517,-3.8516,-3.8515,-3.8513,-3.8558,-3.8561,-3.8563,0,0,0,0,0,0,0,0,0,0,0,0,0,-3.8394,-3.8396,-3.85,-3.85,-3.8501,-3.8544,-3.8544,-3.8545,-3.8518,-3.8516,-3.8514,-3.8513,-3.8557,-3.856,-3.8563,0,0,0,0,0,0,0,0,0,0,0,0,0,-3.8439,-3.8396,-3.85,-3.8492,-3.8492,-3.8544,-3.8544,-3.8545,-3.8518,-3.8516,-3.8514,-3.8512,-3.8557,-3.856,-3.8564,-3.8625,0,0,-3.8575,-3.8576,0,0,0,0,0,0,0,0,-3.8436,-3.8443,-3.8493,-3.8493,-3.8493,-3.8523,-3.8523,-3.8572,-3.8518,-3.8508,-3.8513,-3.8511,-3.8548,-3.8552,-3.8565,-3.8627,-3.8629,-3.8575,-3.8577,-3.8579,-3.858,0,0,0,0,0,0,0,-3.8433,-3.8441,-3.8517,-3.8494,-3.8494,-3.8487,-3.8492,-3.8532,-3.8538,-3.8509,-3.8507,-3.8513,-3.8548,-3.8561,-3.8566,-3.8629,-3.8575,-3.8578,-3.858,-3.8582,-3.8745,-3.8747,0,0,0,0,0,0,-3.8431,-3.8438,-3.8516,-3.8518,-3.8459,-3.8491,-3.8496,-3.8515,-3.8538,-3.8539,-3.8514,-3.8511,-3.8556,-3.8561,-3.8567,-3.864,-3.8579,-3.8582,-3.8584,-3.8743,-3.8745,-3.8748,0,0,0,0,0,0,-3.8428,-3.8438,-3.8514,-3.8478,-3.8487,-3.8495,-3.8517,-3.8517,-3.8531,-3.8542,-3.8543,-3.8527,-3.8555,-3.8562,-3.8611,-3.8641,-3.8584,-3.8587,-3.874,-3.8744,-3.8747,-3.8785,0,0,0,0,0,0,-3.8425,-3.8437,-3.8459,-3.8479,-3.8489,-3.8556,-3.8519,-3.8519,-3.8537,-3.8533,-3.8554,-3.8556,-3.8554,-3.8606,-3.8614,-3.8645,-3.859,-3.8737,-3.8742,-3.8745,-3.8781,-3.8789,-3.8797,0,0,0,0,0,-3.8422,-3.8468,-3.8461,-3.847,-3.8517,-3.8558,-3.8564,-3.8561,-3.854,-3.8562,-3.857,-3.8555,-3.8637,-3.8611,-3.862,-3.8652,-3.8735,-3.874,-3.8745,-3.8778,-3.8788,-3.8796,0,0,0,0,0,0,-3.8452,-3.8471,-3.8462,-3.8517,-3.8536,-3.8553,-3.8582,-3.8572,-3.8597,-3.8593,-3.8589,-3.8594,-3.8644,-3.8654,-3.8624,-3.8713,-3.8683,-3.869,-3.8704,-3.8714,-3.8722,-3.8717,-3.8593,0,0,0,0,0,-3.8465,-3.8496,-3.8511,-3.8558,-3.8568,-3.8574,-3.8591,-3.8588,-3.8607,-3.8615,-3.8626,-3.8646,-3.8677,-3.8697,-3.8725,-3.8784,-3.8788,-3.8811,-3.8819,-3.8825,-3.883,-3.8862,-3.8873,-3.8764,-3.8764,-3.8764,0,0,-3.8492,-3.8506,-3.8526,-3.8564,-3.8579,-3.8611,-3.858,-3.8616,-3.864,-3.8621,-3.8667,-3.8677,-3.8699,-3.8753,-3.8777,-3.8762,-3.8862,-3.8831,-3.8836,-3.8838,-3.8868,-3.8879,-3.8888,-3.8767,-3.8767,-3.8766,0,0,-3.8556,-3.8571,-3.8611,-3.8627,-3.865,-3.8654,-3.8664,-3.8684,-3.869,-3.8737,-3.8723,-3.8753,-3.8805,-3.8821,-3.8837,-3.8912,-3.8899,-3.8922,-3.896,-3.8992,-3.9,-3.9008,-3.9033,-3.9043,-3.8928,-3.8928,-3.8928,0,-3.8586,-3.8634,-3.8633,-3.867,-3.8687,-3.8674,-3.8714,-3.873,-3.8761,-3.8774,-3.8758,-3.8824,-3.8838,-3.8896,-3.8915,-3.8928,-3.8939,-3.8917,-3.8999,-3.9007,-3.9014,-3.9038,-3.9048,-3.8931,-3.893,-3.893,-3.893,0,-3.867,-3.8704,-3.8734,-3.8765,-3.8786,-3.8825,-3.883,-3.8853,-3.8849,-3.8855,-3.8904,-3.8921,-3.8953,-3.8968,-3.8964,-3.9026,-3.9015,-3.9,-3.8968,-3.9027,-3.9049,-3.9059,-3.8934,-3.8933,-3.8932,-3.8932,0,0,-3.875,-3.8783,-3.8793,-3.8808,-3.8834,-3.886,-3.89,-3.8932,-3.8951,-3.8974,-3.9007,-3.9053,-3.9039,-3.9057,-3.9056,-3.9084,-3.9142,-3.9064,-3.9065,-3.9076,-3.921,-3.922,-3.9231,-3.9135,-3.9137,-3.9138,-3.9208,0,-3.8815,-3.8883,-3.8884,-3.8947,-3.8978,-3.8968,-3.9002,-3.9022,-3.903,-3.9059,-3.9068,-3.9101,-3.908,-3.9091,-3.9119,-3.9129,-3.9168,-3.9124,-3.9164,-3.9165,-3.9155,-3.9243,-3.9253,-3.9317,-3.9217,-3.9218,-3.9219,0,-3.8899,-3.8925,-3.8991,-3.9014,-3.9027,-3.9058,-3.9088,-3.9116,-3.914,-3.9144,-3.9165,-3.916,-3.9202,-3.9172,-3.9229,-3.9199,-3.9216,-3.9224,-3.9227,-3.9228,-3.9193,-3.9244,-3.9338,-3.9346,-3.9234,-3.9233,-3.9232,0,-3.8948,-3.9001,-3.9047,-3.906,-3.9089,-3.9111,-3.9124,-3.9146,-3.9166,-3.9193,-3.9206,-3.9238,-3.9254,-3.928,-3.9284,-3.9263,-3.9341,-3.9312,-3.9345,-3.9345,-3.9358,-3.9357,-3.9454,-3.9375,-3.9375,-3.9374,-3.9374,0,-3.9019,-3.9059,-3.907,-3.9098,-3.9143,-3.9146,-3.9191,-3.9202,-3.9223,-3.9253,-3.9248,-3.9276,-3.9282,-3.9313,-3.9317,-3.9363,-3.9371,-3.9375,-3.9375,-3.9374,-3.9373,-3.9383,-3.9377,-3.9377,-3.9376,-3.9376,-3.9375,0,-3.908,-3.9089,-3.9138,-3.9163,-3.917,-3.9202,-3.9223,-3.925,-3.9259,-3.9298,-3.9308,-3.9322,-3.9358,-3.9366,-3.9409,-3.9412,-3.9465,-3.9463,-3.9457,-3.9456,-3.9487,-3.9483,-3.9591,-3.9605,-3.9519,-3.952,-3.9521,0,-3.9122,-3.9153,-3.9181,-3.9201,-3.9216,-3.9248,-3.9269,-3.9275,-3.9296,-3.9328,-3.9351,-3.9387,-3.9415,-3.9473,-3.9487,-3.952,-3.9517,-3.9553,-3.9521,-3.9519,-3.9515,-3.9512,-3.9514,-3.9557,-3.9558,-3.9559,-3.9559,0,-3.9197,-3.9201,-3.923,-3.9262,-3.9287,-3.9313,-3.9337,-3.9354,-3.9364,-3.9389,-3.9426,-3.9448,-3.9492,-3.9527,-3.9561,-3.9576,-3.9569,-3.957,-3.9579,-3.9576,-3.957,-3.9572,-3.947,-3.9566,-3.9565,-3.9565,-3.9565,-3.9564,-3.9248,-3.9275,-3.93,-3.9333,-3.9353,-3.9377,-3.9403,-3.9417,-3.9448,-3.9484,-3.9487,-3.9526,-3.9552,-3.9597,-3.9614,-3.9645,-3.9634,-3.9647,-3.965,-3.9653,-3.9655,-3.9569,-3.9652,-3.9652,-3.9652,-3.9651,-3.9651,0,-3.932,-3.9336,-3.9368,-3.9402,-3.943,-3.9423,-3.9451,-3.9474,-3.9509,-3.9533,-3.9562,-3.9605,-3.964,-3.9659,-3.9694,-3.9716,-3.9714,-3.9724,-3.9721,-3.9724,-3.9663,-3.9651,-3.9725,-3.9725,-3.9725,-3.9725,-3.9725,-3.9725,-3.9361,-3.9406,-3.9413,-3.9469,-3.9485,-3.9523,-3.954,-3.9562,-3.9581,-3.963,-3.9659,-3.9671,-3.9694,-3.9731,-3.9763,-3.9768,-3.978,-3.9792,-3.9795,-3.9736,-3.9729,-3.9721,-3.971,-3.9795,-3.9795,-3.9853,-3.9853,-3.9854]},{"header":{"parameterUnit":"m.s-1","parameterCategory":1,"la1":30.2991,"la2":30.254,"lo1":-89.0895,"lo2":-89.0444,"dy":0.0017,"dx":0.0017,"nx":28,"ny":28,"refTime":"2024-05-21T03:00:00:Z","depth":0,"parameterNumber":3,"parameterNumberName":"V-component_of_WINDS"},"data":[0,0,0,0,0,0,0,0,0,0,0,0,0,0,0,0,0,0,0,0,0,0,0,0,0,0,0,0,0,0,0,0,0,0,0,0,0,0,0,0,0,0,0,0,0,0,0,0,0,0,0,0,0,0,0,0,0,0,3.4738,3.4738,0,3.4758,3.4759,3.4759,3.4809,3.481,3.4811,3.4812,3.4827,3.4826,3.4826,0,0,0,0,0,0,0,0,0,0,0,0,0,3.4739,3.4738,3.4738,3.4738,3.4739,3.4758,3.4759,3.4759,3.4809,3.481,3.4811,3.4812,3.4827,3.4827,3.4826,0,0,0,0,0,0,0,0,0,0,0,0,0,3.4746,3.4738,3.4738,3.4766,3.4769,3.4758,3.4759,3.4759,3.4808,3.481,3.4812,3.4813,3.4827,3.4827,3.4826,3.4788,0,0,3.4823,3.4823,0,0,0,0,0,0,0,0,3.4746,3.4746,3.4762,3.4764,3.4767,3.4783,3.4764,3.4769,3.4808,3.4793,3.4812,3.4814,3.4811,3.4811,3.4811,3.4789,3.4789,3.4823,3.4822,3.4822,3.4822,0,0,0,0,0,0,0,3.4745,3.4746,3.4746,3.4762,3.4765,3.4776,3.4779,3.4765,3.4792,3.4795,3.4798,3.48,3.4812,3.4812,3.4812,3.479,3.4823,3.4822,3.4822,3.4821,3.4739,3.4737,0,0,0,0,0,0,3.4741,3.4745,3.4745,3.4747,3.476,3.4775,3.4778,3.4776,3.4793,3.4797,3.4799,3.4803,3.4813,3.4813,3.4813,3.4771,3.4822,3.4821,3.4821,3.474,3.4738,3.4736,0,0,0,0,0,0,3.4741,3.4741,3.4745,3.4747,3.4748,3.4773,3.4771,3.4776,3.4776,3.4796,3.4801,3.4794,3.4814,3.4814,3.4795,3.4772,3.4821,3.482,3.4742,3.474,3.4737,3.4686,0,0,0,0,0,0,3.4741,3.4741,3.4727,3.4746,3.4748,3.4727,3.4769,3.4775,3.4774,3.4779,3.4793,3.4796,3.4815,3.4796,3.4794,3.4772,3.4819,3.4744,3.4741,3.4738,3.469,3.4682,3.4675,0,0,0,0,0,3.4741,3.4711,3.4727,3.4726,3.4732,3.4726,3.4727,3.4751,3.4772,3.4759,3.4773,3.4796,3.4775,3.4793,3.4791,3.4769,3.4746,3.4742,3.4738,3.4693,3.4683,3.4675,0,0,0,0,0,0,3.4686,3.4713,3.4731,3.4707,3.4714,3.4734,3.4718,3.474,3.4739,3.4744,3.4772,3.4774,3.4751,3.4758,3.4778,3.4734,3.4764,3.476,3.473,3.4721,3.4714,3.4713,3.4818,0,0,0,0,0,3.4671,3.4665,3.4689,3.4665,3.4668,3.4692,3.469,3.4709,3.4716,3.4719,3.4731,3.4736,3.4731,3.4727,3.4723,3.4691,3.4695,3.4675,3.4667,3.4661,3.4657,3.4642,3.4633,3.4724,3.4724,3.4724,0,0,3.464,3.4655,3.4649,3.4654,3.4662,3.4654,3.4694,3.4684,3.4678,3.4717,3.47,3.4709,3.4716,3.4691,3.468,3.4696,3.4633,3.4657,3.4652,3.4651,3.4637,3.4628,3.4621,3.4722,3.4722,3.4723,0,0,3.458,3.459,3.4572,3.4579,3.4591,3.4608,3.4604,3.4621,3.463,3.4614,3.4643,3.4636,3.4626,3.4631,3.4632,3.4575,3.4597,3.4573,3.4535,3.4519,3.4512,3.4506,3.4486,3.4478,3.4569,3.4569,3.4568,0,3.4539,3.453,3.4559,3.4547,3.4549,3.4586,3.4568,3.4573,3.4582,3.4582,3.46,3.459,3.4597,3.4574,3.456,3.456,3.4555,3.4571,3.4511,3.4505,3.45,3.4481,3.4473,3.4566,3.4566,3.4566,3.4566,0,3.448,3.4473,3.4456,3.4467,3.4467,3.4451,3.4477,3.4473,3.4492,3.4506,3.4489,3.45,3.45,3.4496,3.4513,3.4475,3.4485,3.4507,3.4538,3.4488,3.4471,3.4464,3.4561,3.4562,3.4563,3.4564,0,0,3.4383,3.4413,3.4406,3.4412,3.4429,3.4423,3.4409,3.4411,3.4407,3.4413,3.4402,3.4394,3.4415,3.4416,3.4434,3.442,3.4375,3.4444,3.4445,3.4431,3.4335,3.4318,3.4309,3.439,3.4389,3.4388,3.4334,0,3.4327,3.4307,3.4334,3.4307,3.4301,3.4338,3.4326,3.4334,3.4348,3.4344,3.4358,3.4352,3.438,3.4381,3.437,3.4383,3.4356,3.4388,3.4379,3.4378,3.4376,3.43,3.4282,3.4231,3.4328,3.4326,3.4326,0,3.4258,3.4263,3.4237,3.4257,3.4255,3.4244,3.4249,3.4245,3.4255,3.4266,3.4268,3.4291,3.4278,3.4309,3.4291,3.4312,3.431,3.4317,3.4315,3.4315,3.4349,3.4298,3.4215,3.4207,3.4315,3.4316,3.4317,0,3.4191,3.4191,3.4176,3.4179,3.4202,3.4194,3.4203,3.4215,3.4215,3.4218,3.4218,3.4219,3.4219,3.4219,3.4241,3.4262,3.4221,3.4253,3.4229,3.4228,3.4218,3.4218,3.4133,3.4217,3.4217,3.4217,3.4217,0,3.4125,3.4108,3.4146,3.4137,3.4118,3.4148,3.4129,3.4141,3.4152,3.4144,3.4175,3.4167,3.4197,3.4192,3.4209,3.4192,3.4192,3.42,3.4204,3.4197,3.4196,3.4195,3.4199,3.4215,3.4216,3.4216,3.4216,0,3.4047,3.4072,3.4058,3.4082,3.4087,3.4072,3.4092,3.4084,3.41,3.4091,3.409,3.4115,3.4111,3.4133,3.4132,3.4144,3.4118,3.4129,3.4115,3.4118,3.4093,3.4095,3.4004,3.3994,3.4084,3.4083,3.4083,0,3.4003,3.3991,3.4014,3.4013,3.4021,3.4017,3.4018,3.4047,3.4047,3.4059,3.4048,3.4048,3.4048,3.404,3.4057,3.4057,3.4068,3.4036,3.4068,3.4061,3.4067,3.4068,3.4067,3.4029,3.4028,3.4027,3.4026,0,3.3923,3.3936,3.3937,3.3943,3.3944,3.3949,3.3956,3.3952,3.3984,3.3982,3.3979,3.398,3.3981,3.3979,3.3983,3.399,3.4013,3.4017,3.4011,3.4003,3.3996,3.3999,3.4097,3.4018,3.4019,3.402,3.402,3.4021,3.386,3.3852,3.3867,3.3867,3.3877,3.3883,3.3877,3.3893,3.3892,3.3897,3.3914,3.3908,3.3919,3.3927,3.3933,3.3928,3.3943,3.3934,3.3932,3.393,3.3925,3.3997,3.3929,3.3929,3.3929,3.3929,3.393,0,3.3782,3.3794,3.3794,3.3804,3.3804,3.3829,3.3838,3.3836,3.3832,3.3841,3.3842,3.3839,3.3838,3.3856,3.3857,3.385,3.3861,3.3849,3.385,3.3851,3.3912,3.3917,3.3841,3.3841,3.3841,3.3841,3.3841,3.3841,3.3741,3.3728,3.3743,3.3735,3.3747,3.3743,3.3747,3.3753,3.3761,3.3757,3.3757,3.377,3.3782,3.3785,3.3785,3.379,3.3789,3.3774,3.3783,3.3838,3.3847,3.3855,3.386,3.3774,3.3773,3.3723,3.3722,3.3722]}]]